Location: Corona
(40.7470°N, 73.8601°W)
Time: 13:43:35
(UTC+00:00)

Cosmos 1441 Rocket - Pass Details

Date: 22 September 2019
Orbit: 496 x 541 km, 81.1° (Epoch: 17 October)

Event Time Altitude Azimuth Distance (km) Brightness Sun altitude
Rises 23:27:04 0° 189° (S) 2,617 6.8 -7.3°
Reaches altitude 10° 23:29:12 10° 190° (S) 1,728 5.9 -7.7°
Maximum altitude 23:32:59 86° 275° (W) 514 3.2 -8.4°
Drops below altitude 10° 23:36:46 10° 9° (N) 1,720 5.9 -9.1°
Sets 23:38:53 0° 10° (N) 2,604 6.8 -9.5°
